Change the Weather History Date:

Sunday, September 23, 2012

  Actual Average Record
Temperature  
Mean Temperature 80 °F -  
Max Temperature 93 °F 87 °F 98 °F (2003)
Min Temperature 66 °F 57 °F 50 °F (2004)
Cooling Degree Days 14    
Growing Degree Days 30 (Base 50)    
Moisture  
Dew Point 31 °F    
Average Humidity 16    
Maximum Humidity 26    
Minimum Humidity 5    
Precipitation  
Precipitation 0.00 in - - ()
Sea Level Pressure  
Sea Level Pressure 29.87 in    
Wind  
Wind Speed 6 mph (SSW)    
Max Wind Speed 21 mph    
Max Gust Speed 28 mph    
Visibility 10 miles    
Events      
Averages and records for this station are not official NWS values.
T = Trace of Precipitation, MM = Missing Value Source: NWS Daily Summary

Daily Weather History Graph

Daily Weather History Graph

Search for Another Location

Airport or City:

Trip Planner

Search our weather history database for the weather conditions in past years. The results will help you decide how hot, cold, wet, or windy it might be!

Date:

Astronomy

Sep. 23, 2012 Rise Set
Actual Time 6:33 AM PDT 6:38 PM PDT
Civil Twilight 6:07 AM PDT 7:04 PM PDT
Nautical Twilight 5:37 AM PDT 7:34 PM PDT
Astronomical Twilight 5:06 AM PDT 8:04 PM PDT
Moon 2:35 PM PDT (9/23) No Moon Set
Length of Visible Light 12h 56m
Length of Day
12h 05m
First Quarter, 61% of the Moon is Illuminated
Sep 23
First Quarter
Sep 29
Full
Oct 8
Last Quarter
Oct 15
New
Oct 21
First Quarter

Hourly Weather History & Observations

Time (PDT) Temp. Dew Point Humidity Pressure Visibility Wind Dir Wind Speed Gust Speed Precip Events Conditions
12:52 AM 75.0 °F 30.9 °F 20% 29.86 in 10.0 mi East 3.5 mph - N/A   Clear
1:52 AM 73.0 °F 32.0 °F 22% 29.87 in 10.0 mi NE 4.6 mph - N/A   Clear
2:52 AM 71.1 °F 30.9 °F 23% 29.86 in 10.0 mi Calm Calm - N/A   Clear
3:52 AM 71.1 °F 30.9 °F 23% 29.86 in 10.0 mi Calm Calm - N/A   Clear
4:52 AM 71.1 °F 32.0 °F 24% 29.87 in 10.0 mi Calm Calm - N/A   Clear
5:52 AM 69.1 °F 32.0 °F 25% 29.89 in 10.0 mi Calm Calm - N/A   Clear
6:52 AM 70.0 °F 33.1 °F 26% 29.91 in 10.0 mi East 4.6 mph - N/A   Clear
7:52 AM 71.1 °F 33.1 °F 25% 29.93 in 10.0 mi Calm Calm - N/A   Clear
8:52 AM 75.0 °F 33.1 °F 22% 29.94 in 10.0 mi Calm Calm - N/A   Clear
9:52 AM 78.1 °F 33.1 °F 19% 29.94 in 10.0 mi Calm Calm - N/A   Clear
10:52 AM 86.0 °F 32.0 °F 14% 29.92 in 10.0 mi South 3.5 mph - N/A   Clear
11:52 AM 90.0 °F 30.9 °F 12% 29.91 in 10.0 mi SSW 13.8 mph 20.7 mph N/A   Clear
12:52 PM 91.0 °F 30.0 °F 11% 29.89 in 10.0 mi South 17.3 mph 25.3 mph N/A   Clear
1:52 PM 91.9 °F 25.0 °F 9% 29.87 in 10.0 mi SSW 18.4 mph 27.6 mph N/A   Clear
2:52 PM 91.9 °F 27.0 °F 10% 29.86 in 10.0 mi SW 13.8 mph 26.5 mph N/A   Clear
3:52 PM 91.9 °F 28.0 °F 10% 29.84 in 10.0 mi South 20.7 mph 27.6 mph N/A   Clear
4:52 PM 91.0 °F 28.9 °F 11% 29.83 in 10.0 mi South 19.6 mph 25.3 mph N/A   Clear
5:52 PM 89.1 °F 28.9 °F 12% 29.82 in 10.0 mi SW 16.1 mph 25.3 mph N/A   Clear
6:52 PM 86.0 °F 30.9 °F 14% 29.82 in 10.0 mi SSW 13.8 mph 25.3 mph N/A   Clear
7:52 PM 84.9 °F 30.0 °F 14% 29.83 in 10.0 mi SSW 11.5 mph - N/A   Clear
8:52 PM 82.0 °F 30.9 °F 16% 29.84 in 10.0 mi SW 10.4 mph - N/A   Clear
9:52 PM 81.0 °F 30.9 °F 16% 29.83 in 10.0 mi SW 9.2 mph - N/A   Clear
10:52 PM 81.0 °F 32.0 °F 17% 29.81 in 10.0 mi SSW 12.7 mph 20.7 mph N/A   Clear
11:52 PM 81.0 °F 33.1 °F 18% 29.80 in 10.0 mi SSW 17.3 mph 27.6 mph N/A   Clear